Terug naar catalogus

FENGYUN 1C DEB

ActiefPO
NORAD 31296·DEBRIS·🇨🇳 China

Gelanceerd May 10, 1999 vanaf Taiyuan Satellite Launch Center

Loading…

Volgende Passages (komende 24 uur)

TLE

VersSource: Space-Track

Epoch: Sep 14, 2026, 14:12 UTC

1 31296U 99025BPE 26257.59191625  .00036850  00000-0  36290-2 0  9990
2 31296  99.0568 213.6400 0020324  63.3730 296.9564 14.91792228 14303

Volg FENGYUN 1C DEB in realtime met AllMySat

Download on the App Store